Hourly Data Report for April 29, 2020

TORONTO CITY
ONTARIO
Current Station Operator: ECCC - MSC

43°40'00.000" N
79°24'00.000" W
112.50 m
6158355
71508
XTO

Download Data

Hourly Data (April 2020)
Hourly Data Report for April 29, 2020
TIME
LST
Temp Definition
°C
Dew Point Definition
°C
Rel Hum Definition
%
Precip. Amount Definition
mm

Wind Dir Definition
10's deg

Wind Spd Definition
km/h
Visibility Definition
km
Stn Press Definition
kPa
Hmdx Definition


Wind Chill Definition


Weather Definition


00:00 9.0 -1.5 48 0.0       100.29     LegendNANA
01:00 8.5 -0.4 54 0.0       100.25     LegendNANA
02:00 9.0 -0.2 53 0.0       100.18     LegendNANA
03:00 8.6 0.4 56 0.0       100.12     LegendNANA
04:00 8.5 1.2 60 0.0       100.09     LegendNANA
05:00 7.8 1.1 62 0.0       100.06     LegendNANA
06:00 7.9 0.8 61 0.0       99.99     LegendNANA
07:00 7.9 0.7 60 0.0       99.95     LegendNANA
08:00 7.9 1.7 65 0.0       99.85     LegendNANA
09:00 8.2 2.6 68 0.0       99.83     LegendNANA
10:00 7.7 2.8 71 0.0       99.79     LegendNANA
11:00 9.0 3.5 68 0.0       99.75     LegendNANA
12:00 10.1 3.7 64 0.0       99.66     LegendNANA
13:00 10.2 3.7 64 0.0       99.59     LegendNANA
14:00 11.5 4.4 62 0.0       99.46     LegendNANA
15:00 11.7 4.9 63 0.0       99.42     LegendNANA
16:00 12.0 5.2 63 0.0       99.37     LegendNANA
17:00 12.8 5.6 62 0.0       99.31     LegendNANA
18:00 13.1 5.6 60 0.0       99.31     LegendNANA
19:00 13.5 5.7 59 0.0       99.33     LegendNANA
20:00 13.6 6.0 60 0.0       99.38     LegendNANA
21:00 13.4 5.8 60 0.0       99.41     LegendNANA
22:00 11.9 7.0 72 0.3       99.40     LegendNANA
23:00 11.4 7.1 75 0.0       99.34     LegendNANA

Notes on Data Quality.

Legend

  • E = Estimated
  • M = Missing
  • NA = Not Available*
  • [empty] = Indicates an unobserved value
Date modified: